User: anonymous   Login
Location: Unspecified
(0.0000°N, 0.0000°E)
Time: 05:48:27
(UTC+00:00)
Language:

STARLINK-34503 - Orbit

View from above orbital plane
View from above orbital plane
View from above satellite
View from above satellite

Ground track
Ground track

The orbit is defined by the following mean orbital elements,

1 64420U          26145.52727228 +.00000000 +00000-0 +20355-3 0 00000
2 64420  70.0006 240.8430 0003382 267.1520  92.9252 14.98334039    04
Epoch (UTC): 25 May 2026 12:39:16
Eccentricity: 0.0003382
inclination: 70.0006°
perigee height: 570 km
apogee height: 574 km
right ascension of ascending node: 240.8430°
argument of perigee: 267.1520°
revolutions per day: 14.98334039
mean anomaly at epoch: 92.9252°

The dashed part of the orbit path shows where the satellite is in the earth's shadow,  

DLR